TimeMST,TemperatureF,Dew PointF,Humidity,Sea Level PressureIn,VisibilityMPH,Wind Direction,Wind SpeedMPH,Gust SpeedMPH,PrecipitationIn,Events,Conditions,WindDirDegrees,DateUTC
12:53 AM,18.0,16.0,92,29.76,7.0,NE,16.1,-,N/A,,Overcast,40,2013-12-03 07:53:00
1:53 AM,18.0,15.1,88,29.78,5.0,NE,20.7,26.5,N/A,,Overcast,40,2013-12-03 08:53:00
2:53 AM,18.0,15.1,88,29.80,3.0,NE,21.9,26.5,0.00,Snow,Light Snow,50,2013-12-03 09:53:00
3:02 AM,17.6,15.8,93,29.71,2.5,NE,23.0,-,0.00,Snow,Light Snow,50,2013-12-03 10:02:00
3:10 AM,17.6,15.8,93,29.71,3.0,NE,16.1,-,0.00,Snow,Light Snow,40,2013-12-03 10:10:00
3:29 AM,17.6,15.8,93,29.72,2.5,NE,18.4,25.3,0.00,Snow,Light Snow,40,2013-12-03 10:29:00
3:53 AM,17.1,15.1,92,29.83,2.5,NE,17.3,25.3,0.00,Snow,Light Snow,40,2013-12-03 10:53:00
4:53 AM,17.1,14.0,88,29.83,3.0,NE,18.4,27.6,0.00,Snow,Light Snow,40,2013-12-03 11:53:00
4:59 AM,17.6,14.0,86,29.73,1.8,NE,19.6,25.3,0.00,Snow,Light Snow,40,2013-12-03 11:59:00
5:16 AM,17.6,14.0,86,29.74,2.0,NE,18.4,25.3,0.00,Snow,Light Snow,40,2013-12-03 12:16:00
5:36 AM,15.8,14.0,93,29.74,1.8,NE,18.4,-,0.00,Snow,Light Snow,50,2013-12-03 12:36:00
5:53 AM,16.0,12.9,88,29.86,1.2,NE,18.4,-,0.00,Snow,Light Snow,40,2013-12-03 12:53:00
6:00 AM,15.8,12.2,86,29.74,1.5,NNE,16.1,24.2,0.00,Snow,Light Snow,30,2013-12-03 13:00:00
6:10 AM,15.8,12.2,86,29.75,2.5,NNE,15.0,24.2,0.00,Snow,Light Snow,30,2013-12-03 13:10:00
6:28 AM,15.8,12.2,86,29.76,3.0,NNE,15.0,-,0.00,Snow,Light Snow,30,2013-12-03 13:28:00
6:36 AM,15.8,12.2,86,29.77,2.0,NE,17.3,24.2,0.00,Snow,Light Snow,40,2013-12-03 13:36:00
6:44 AM,15.8,12.2,86,29.78,1.5,NE,17.3,24.2,0.00,Snow,Light Snow,40,2013-12-03 13:44:00
6:51 AM,15.8,12.2,86,29.78,1.5,NE,16.1,24.2,0.00,Snow,Light Snow,40,2013-12-03 13:51:00
6:53 AM,15.1,12.0,88,29.90,1.5,NNE,15.0,21.9,0.00,Snow,Light Snow,30,2013-12-03 13:53:00
7:14 AM,15.8,12.2,86,29.79,1.5,NNE,13.8,-,0.00,Snow,Light Snow,20,2013-12-03 14:14:00
7:31 AM,14.0,10.4,86,29.79,2.5,NNE,15.0,21.9,0.00,Snow,Light Snow,30,2013-12-03 14:31:00
7:41 AM,14.0,10.4,86,29.80,3.0,NNE,12.7,-,0.00,Snow,Light Snow,20,2013-12-03 14:41:00
7:50 AM,14.0,10.4,86,29.81,1.8,NNE,12.7,-,0.00,Snow,Light Snow,20,2013-12-03 14:50:00
7:53 AM,14.0,10.9,88,29.94,1.5,NNE,13.8,-,0.00,Snow,Light Snow,20,2013-12-03 14:53:00
8:12 AM,14.0,10.4,86,29.82,0.8,NNE,15.0,-,0.00,Snow,Light Snow,30,2013-12-03 15:12:00
8:27 AM,12.2,10.4,92,29.83,1.0,NNE,12.7,-,0.00,Snow,Light Snow,30,2013-12-03 15:27:00
8:37 AM,14.0,10.4,86,29.83,0.8,NNE,11.5,-,0.00,Snow,Light Snow,30,2013-12-03 15:37:00
8:53 AM,12.9,10.0,88,29.96,0.8,NNE,17.3,23.0,0.00,Snow,Light Snow,20,2013-12-03 15:53:00
9:48 AM,12.2,8.6,85,29.86,0.8,North,12.7,20.7,0.00,Snow,Light Snow,10,2013-12-03 16:48:00
9:53 AM,12.9,9.0,84,30.00,0.8,NNE,15.0,-,0.00,Snow,Light Snow,20,2013-12-03 16:53:00
10:09 AM,12.2,8.6,85,29.87,0.5,NNE,13.8,-,0.00,Fog-Snow,Snow,20,2013-12-03 17:09:00
10:53 AM,12.0,8.1,84,29.99,0.5,North,19.6,-,0.00,Fog-Snow,Snow,10,2013-12-03 17:53:00
11:23 AM,12.2,6.8,79,29.87,1.0,North,16.1,20.7,0.00,Snow,Light Snow,10,2013-12-03 18:23:00
11:53 AM,10.9,6.1,81,29.99,1.5,North,13.8,-,0.00,Snow,Light Snow,10,2013-12-03 18:53:00
12:12 PM,10.4,5.0,79,29.84,0.8,North,12.7,23.0,0.00,Snow,Light Snow,10,2013-12-03 19:12:00
12:34 PM,10.4,6.8,85,29.86,1.2,North,11.5,16.1,0.00,Snow,Light Snow,360,2013-12-03 19:34:00
12:53 PM,10.9,6.1,81,30.00,1.5,North,10.4,-,0.00,Snow,Light Snow,360,2013-12-03 19:53:00
1:28 PM,10.4,5.0,79,29.85,1.0,North,13.8,-,0.00,Snow,Light Snow,10,2013-12-03 20:28:00
1:36 PM,10.4,5.0,79,29.85,0.8,NNE,13.8,-,0.00,Snow,Light Snow,20,2013-12-03 20:36:00
1:53 PM,10.0,5.0,80,30.00,1.0,North,12.7,19.6,0.00,Snow,Light Snow,10,2013-12-03 20:53:00
2:01 PM,10.4,5.0,79,29.86,1.2,North,12.7,-,0.00,Snow,Light Snow,10,2013-12-03 21:01:00
2:53 PM,9.0,3.9,80,29.98,1.5,North,16.1,-,0.00,Snow,Light Snow,10,2013-12-03 21:53:00
3:33 PM,8.6,3.2,79,29.87,2.5,North,11.5,-,0.00,Snow,Light Snow,10,2013-12-03 22:33:00
3:53 PM,9.0,3.9,80,30.03,3.0,North,11.5,-,0.00,Snow,Light Snow,350,2013-12-03 22:53:00
4:04 PM,8.6,3.2,79,29.90,2.5,North,12.7,-,0.00,Snow,Light Snow,350,2013-12-03 23:04:00
4:29 PM,8.6,3.2,79,29.92,1.8,NNW,8.1,-,0.00,Snow,Light Snow,340,2013-12-03 23:29:00
4:53 PM,8.1,3.9,83,30.06,1.8,North,13.8,-,0.00,Snow,Light Snow,360,2013-12-03 23:53:00
5:14 PM,8.6,3.2,79,29.91,1.0,NNW,10.4,-,0.00,Snow,Light Snow,340,2013-12-04 00:14:00
5:44 PM,8.6,3.2,79,29.90,1.8,North,13.8,18.4,0.00,Snow,Light Snow,360,2013-12-04 00:44:00
5:53 PM,7.0,3.0,84,30.04,1.5,North,15.0,-,0.00,Snow,Light Snow,10,2013-12-04 00:53:00
6:27 PM,6.8,1.4,79,29.90,2.0,North,15.0,-,0.00,Snow,Light Snow,360,2013-12-04 01:27:00
6:44 PM,6.8,1.4,79,29.91,1.5,North,15.0,-,0.00,Snow,Light Snow,360,2013-12-04 01:44:00
6:53 PM,7.0,1.9,80,30.08,1.5,North,12.7,-,0.00,Snow,Light Snow,350,2013-12-04 01:53:00
7:53 PM,7.0,1.9,80,30.07,1.8,North,10.4,-,0.00,Snow,Light Snow,350,2013-12-04 02:53:00
8:21 PM,6.8,3.2,85,29.93,2.0,NNW,12.7,-,0.00,Snow,Light Snow,340,2013-12-04 03:21:00
8:28 PM,6.8,3.2,85,29.93,1.8,NNW,11.5,-,0.00,Snow,Light Snow,340,2013-12-04 03:28:00
8:53 PM,7.0,3.0,84,30.09,1.2,NNW,13.8,-,0.00,Snow,Light Snow,340,2013-12-04 03:53:00
9:53 PM,7.0,1.9,80,30.09,1.8,North,11.5,-,0.00,Snow,Light Snow,350,2013-12-04 04:53:00
10:53 PM,6.1,1.9,83,30.09,1.2,North,15.0,-,0.00,Snow,Light Snow,350,2013-12-04 05:53:00
11:53 PM,6.1,1.0,80,30.10,1.2,NNW,15.0,23.0,0.00,Snow,Light Snow,340,2013-12-04 06:53:00